LIC0209 LEBA-LEGE

Flight info

Callsign LIC0209
Flight time 1h 11m
Altitude 34000
Route ALCOL N747 TOSTO M445 SOPET M985 EBROX Z26 LATRO L110 MAMUK
Aircraft A320/M-SDE3FGHIRWY/LB1

Departure

Time 2026-05-05 20:43
Airport Córdoba Airport (LEBA)

Arrival

Time 2026-05-05 21:55
Airport Girona-Costa Brava Airport (LEGE)
Time Latitude Longitude Altitude Speed Heading
2026-05-05 20:25 37.84542 -4.84362 310 ft 0 kts 208°
2026-05-05 20:34 37.84541 -4.84361 310 ft 4 kts 153°
2026-05-05 20:35 37.84558 -4.84371 308 ft 4 kts 139°
2026-05-05 20:35 37.84561 -4.84385 309 ft 4 kts 55°
2026-05-05 20:35 37.84552 -4.84404 309 ft 4 kts 20°
2026-05-05 20:35 37.84528 -4.84415 309 ft 4 kts 29°
2026-05-05 20:36 37.84505 -4.84432 308 ft 4 kts 29°
2026-05-05 20:36 37.84490 -4.84443 309 ft 1 kts 29°
2026-05-05 20:36 37.84488 -4.84444 309 ft 0 kts 29°
2026-05-05 20:38 37.84493 -4.84448 309 ft 2 kts 331°
2026-05-05 20:39 37.84491 -4.84458 309 ft 1 kts 262°
2026-05-05 20:39 37.84489 -4.84471 308 ft 2 kts 261°
2026-05-05 20:39 37.84489 -4.84499 308 ft 5 kts 273°
2026-05-05 20:39 37.84499 -4.84534 308 ft 4 kts 295°
2026-05-05 20:40 37.84513 -4.84573 309 ft 5 kts 295°
2026-05-05 20:40 37.84537 -4.84617 308 ft 6 kts 320°
2026-05-05 20:40 37.84581 -4.84617 308 ft 7 kts 19°
2026-05-05 20:40 37.84643 -4.84580 308 ft 13 kts 27°
2026-05-05 20:41 37.84720 -4.84526 308 ft 12 kts 31°
2026-05-05 20:41 37.84782 -4.84467 308 ft 11 kts 51°
2026-05-05 20:41 37.84798 -4.84468 307 ft 1 kts 245°
2026-05-05 20:41 37.84782 -4.84478 309 ft 8 kts 209°
2026-05-05 20:42 37.84740 -4.84509 307 ft 0 kts 208°
2026-05-05 20:42 37.84710 -4.84527 308 ft 29 kts 205°
2026-05-05 20:42 37.84298 -4.84816 309 ft 102 kts 209°
2026-05-05 20:42 37.83504 -4.85363 313 ft 154 kts 210°
2026-05-05 20:43 37.82546 -4.86048 828 ft 159 kts 211°
2026-05-05 20:43 37.81574 -4.86780 1394 ft 168 kts 213°
2026-05-05 20:43 37.80558 -4.87512 2065 ft 169 kts 213°
2026-05-05 20:43 37.79484 -4.88249 2428 ft 186 kts 212°
2026-05-05 20:44 37.78282 -4.89072 2675 ft 207 kts 212°
2026-05-05 20:44 37.76980 -4.89964 3118 ft 217 kts 212°
2026-05-05 20:44 37.75591 -4.90862 3576 ft 231 kts 202°
2026-05-05 20:44 37.73989 -4.90892 4341 ft 238 kts 160°
2026-05-05 20:45 37.72317 -4.87645 5934 ft 236 kts 81°
2026-05-05 20:45 37.72767 -4.85666 6712 ft 235 kts 64°
2026-05-05 20:45 37.73309 -4.83732 7412 ft 242 kts 85°
2026-05-05 20:46 37.73105 -4.81617 8100 ft 247 kts 107°
2026-05-05 20:46 37.72491 -4.79576 8815 ft 251 kts 115°
2026-05-05 20:46 37.71741 -4.77567 9574 ft 255 kts 117°
2026-05-05 20:46 37.70960 -4.75537 10271 ft 259 kts 117°
2026-05-05 20:47 37.70184 -4.73461 10961 ft 263 kts 116°
2026-05-05 20:47 37.69436 -4.71333 11648 ft 268 kts 110°
2026-05-05 20:47 37.69165 -4.68999 12320 ft 273 kts 84°
2026-05-05 20:47 37.69696 -4.66698 12893 ft 281 kts 58°
2026-05-05 20:48 37.71011 -4.64809 13136 ft 297 kts 32°
2026-05-05 20:48 37.72772 -4.63269 13346 ft 319 kts 31°
2026-05-05 20:48 37.74672 -4.61625 13516 ft 343 kts 31°
2026-05-05 20:48 37.76699 -4.59856 13714 ft 364 kts 32°
2026-05-05 20:49 37.78798 -4.57998 14207 ft 372 kts 32°
2026-05-05 20:49 37.80919 -4.56100 14810 ft 376 kts 32°
2026-05-05 20:49 37.83064 -4.54167 15429 ft 380 kts 33°
2026-05-05 20:49 37.85025 -4.51878 16026 ft 389 kts 47°
2026-05-05 20:50 37.86539 -4.49011 16617 ft 397 kts 62°
2026-05-05 20:50 37.87677 -4.45804 17231 ft 401 kts 65°
2026-05-05 20:50 37.88782 -4.42536 17813 ft 406 kts 65°
2026-05-05 20:50 37.89883 -4.39224 18374 ft 410 kts 65°
2026-05-05 20:51 37.90991 -4.35875 18877 ft 414 kts 65°
2026-05-05 20:51 37.92109 -4.32496 19382 ft 418 kts 65°
2026-05-05 20:51 37.93240 -4.29090 19897 ft 421 kts 65°
2026-05-05 20:51 37.94381 -4.25667 20402 ft 424 kts 65°
2026-05-05 20:52 37.95535 -4.22211 20885 ft 427 kts 65°
2026-05-05 20:52 37.96695 -4.18739 21384 ft 430 kts 65°
2026-05-05 20:52 37.97865 -4.15232 21879 ft 433 kts 65°
2026-05-05 20:52 37.99038 -4.11705 22360 ft 436 kts 65°
2026-05-05 20:53 38.00219 -4.08147 22833 ft 439 kts 66°
2026-05-05 20:53 38.01406 -4.04567 23301 ft 442 kts 66°
2026-05-05 20:53 38.02600 -4.00960 23724 ft 445 kts 66°
2026-05-05 20:53 38.03803 -3.97328 24087 ft 448 kts 66°
2026-05-05 20:54 38.05015 -3.93664 24442 ft 452 kts 66°
2026-05-05 20:54 38.06234 -3.89979 24793 ft 455 kts 66°
2026-05-05 20:54 38.07464 -3.86260 25127 ft 459 kts 66°
2026-05-05 20:54 38.08700 -3.82515 25466 ft 462 kts 66°
2026-05-05 20:55 38.09943 -3.78738 25789 ft 465 kts 66°
2026-05-05 20:55 38.11191 -3.74931 26107 ft 469 kts 66°
2026-05-05 20:55 38.12443 -3.71095 26427 ft 472 kts 66°
2026-05-05 20:55 38.13704 -3.67229 26784 ft 475 kts 66°
2026-05-05 20:56 38.14939 -3.63310 27044 ft 481 kts 70°
2026-05-05 20:56 38.15813 -3.59248 27329 ft 485 kts 77°
2026-05-05 20:56 38.16522 -3.54982 27646 ft 489 kts 77°
2026-05-05 20:56 38.17230 -3.50748 27969 ft 492 kts 77°
2026-05-05 20:57 38.17948 -3.46484 28273 ft 495 kts 77°
2026-05-05 20:57 38.18671 -3.42196 28571 ft 498 kts 77°
2026-05-05 20:57 38.19388 -3.37930 28844 ft 502 kts 77°
2026-05-05 20:57 38.20126 -3.33523 29132 ft 505 kts 77°
2026-05-05 20:58 38.20846 -3.29203 29409 ft 508 kts 78°
2026-05-05 20:58 38.21575 -3.24802 29696 ft 510 kts 78°
2026-05-05 20:58 38.22310 -3.20373 29962 ft 513 kts 78°
2026-05-05 20:58 38.23048 -3.15923 30196 ft 516 kts 78°
2026-05-05 20:59 38.23790 -3.11450 30445 ft 518 kts 78°
2026-05-05 20:59 38.24531 -3.06966 30704 ft 519 kts 78°
2026-05-05 20:59 38.25270 -3.02471 31035 ft 518 kts 78°
2026-05-05 20:59 38.26005 -2.97990 31385 ft 517 kts 78°
2026-05-05 21:00 38.26500 -2.94966 31623 ft 516 kts 78°
2026-05-05 21:00 38.27230 -2.90502 31989 ft 515 kts 78°
2026-05-05 21:00 38.27956 -2.86045 32376 ft 514 kts 79°
2026-05-05 21:00 38.28678 -2.81602 32738 ft 513 kts 79°
2026-05-05 21:01 38.29398 -2.77159 33099 ft 511 kts 79°
2026-05-05 21:01 38.30112 -2.72733 33483 ft 510 kts 79°
2026-05-05 21:01 38.30823 -2.68312 33805 ft 509 kts 79°
2026-05-05 21:01 38.31530 -2.63898 33984 ft 508 kts 79°
2026-05-05 21:02 38.32936 -2.55115 34012 ft 505 kts 79°
2026-05-05 21:02 38.34333 -2.46363 34013 ft 504 kts 79°
2026-05-05 21:03 38.35712 -2.37605 34006 ft 504 kts 82°
2026-05-05 21:03 38.36144 -2.28743 34008 ft 501 kts 92°
2026-05-05 21:04 38.36217 -2.19854 33996 ft 502 kts 92°
2026-05-05 21:04 38.36295 -2.10945 33979 ft 503 kts 92°
2026-05-05 21:05 38.36418 -2.02029 33978 ft 505 kts 87°
2026-05-05 21:05 38.37951 -1.93305 33971 ft 507 kts 68°
2026-05-05 21:06 38.41405 -1.85541 33960 ft 503 kts 49°
2026-05-05 21:06 38.45736 -1.78523 33952 ft 504 kts 49°
2026-05-05 21:07 38.50026 -1.71499 33960 ft 505 kts 50°
2026-05-05 21:07 38.54345 -1.64411 33956 ft 506 kts 49°
2026-05-05 21:08 38.58667 -1.57317 33960 ft 506 kts 49°
2026-05-05 21:08 38.62996 -1.50217 33934 ft 506 kts 50°
2026-05-05 21:09 38.67317 -1.43109 33980 ft 507 kts 50°
2026-05-05 21:09 38.71639 -1.35972 33968 ft 507 kts 50°
2026-05-05 21:10 38.75962 -1.28827 33965 ft 508 kts 50°
2026-05-05 21:10 38.80292 -1.21666 33962 ft 508 kts 50°
2026-05-05 21:11 38.84615 -1.14494 33952 ft 508 kts 50°
2026-05-05 21:11 38.88935 -1.07311 33991 ft 509 kts 50°
2026-05-05 21:12 38.93258 -1.00103 33970 ft 510 kts 50°
2026-05-05 21:12 38.97584 -0.92878 33961 ft 510 kts 50°
2026-05-05 21:13 39.01907 -0.85640 33957 ft 511 kts 50°
2026-05-05 21:13 39.06268 -0.78434 33956 ft 509 kts 45°
2026-05-05 21:14 39.11459 -0.72359 33936 ft 504 kts 35°
2026-05-05 21:14 39.16875 -0.66611 33948 ft 504 kts 35°
2026-05-05 21:15 39.22284 -0.60839 33935 ft 505 kts 36°
2026-05-05 21:15 39.27696 -0.55038 33935 ft 506 kts 36°
2026-05-05 21:16 39.33207 -0.49411 33942 ft 504 kts 32°
2026-05-05 21:16 39.38860 -0.44045 33990 ft 504 kts 31°
2026-05-05 21:17 39.44525 -0.38678 33976 ft 505 kts 32°
2026-05-05 21:17 39.50148 -0.33209 33969 ft 506 kts 32°
2026-05-05 21:18 39.55757 -0.27686 33962 ft 506 kts 32°
2026-05-05 21:18 39.61365 -0.22165 33992 ft 506 kts 32°
2026-05-05 21:19 39.66976 -0.16649 33978 ft 506 kts 32°
2026-05-05 21:19 39.72578 -0.11141 33968 ft 505 kts 32°
2026-05-05 21:20 39.78185 -0.05621 33974 ft 505 kts 32°
2026-05-05 21:20 39.83703 0.00038 33950 ft 508 kts 39°
2026-05-05 21:21 39.88578 0.06723 33945 ft 510 kts 43°
2026-05-05 21:21 39.93425 0.13475 33943 ft 510 kts 43°
2026-05-05 21:22 39.98277 0.20231 33942 ft 511 kts 43°
2026-05-05 21:22 40.03131 0.27004 33997 ft 511 kts 43°
2026-05-05 21:23 40.07986 0.33787 34002 ft 511 kts 43°
2026-05-05 21:23 40.12800 0.40533 33979 ft 511 kts 43°
2026-05-05 21:24 40.17649 0.47341 33957 ft 512 kts 44°
2026-05-05 21:24 40.22499 0.54164 33948 ft 512 kts 44°
2026-05-05 21:25 40.27351 0.61008 34000 ft 513 kts 44°
2026-05-05 21:25 40.32192 0.67862 33982 ft 512 kts 44°
2026-05-05 21:26 40.37029 0.74719 33970 ft 512 kts 43°
2026-05-05 21:26 40.41870 0.81574 33936 ft 512 kts 44°
2026-05-05 21:27 40.46700 0.88463 33941 ft 513 kts 44°
2026-05-05 21:27 40.51534 0.95371 33961 ft 513 kts 44°
2026-05-05 21:28 40.56359 1.02284 33959 ft 513 kts 44°
2026-05-05 21:28 40.61189 1.09206 33949 ft 513 kts 44°
2026-05-05 21:29 40.66011 1.16141 33930 ft 513 kts 44°
2026-05-05 21:29 40.71478 1.22020 33938 ft 503 kts 25°
2026-05-05 21:30 40.77791 1.25652 33933 ft 489 kts
2026-05-05 21:30 40.84351 1.27999 33934 ft 489 kts
2026-05-05 21:31 40.90917 1.30353 33995 ft 489 kts
2026-05-05 21:31 40.97483 1.32719 33986 ft 489 kts
2026-05-05 21:32 41.04038 1.35090 33992 ft 488 kts
2026-05-05 21:32 41.07316 1.36278 33865 ft 488 kts
2026-05-05 21:32 41.10586 1.37466 33587 ft 487 kts
2026-05-05 21:33 41.13856 1.38659 33349 ft 488 kts
2026-05-05 21:33 41.17129 1.39850 33078 ft 488 kts
2026-05-05 21:33 41.20415 1.41043 32077 ft 494 kts
2026-05-05 21:33 41.23765 1.42245 31127 ft 499 kts
2026-05-05 21:34 41.27087 1.43450 30591 ft 493 kts
2026-05-05 21:34 41.30386 1.44652 29854 ft 491 kts
2026-05-05 21:34 41.33669 1.45857 29152 ft 487 kts
2026-05-05 21:34 41.36924 1.47055 28471 ft 484 kts
2026-05-05 21:35 41.40112 1.48231 27825 ft 480 kts
2026-05-05 21:35 41.43319 1.49406 27174 ft 476 kts
2026-05-05 21:35 41.46499 1.50566 26531 ft 472 kts
2026-05-05 21:35 41.49661 1.51720 25890 ft 469 kts
2026-05-05 21:36 41.52797 1.52867 25247 ft 465 kts
2026-05-05 21:36 41.55908 1.54008 24677 ft 462 kts
2026-05-05 21:36 41.58999 1.55143 24066 ft 459 kts
2026-05-05 21:36 41.62070 1.56271 23501 ft 456 kts
2026-05-05 21:37 41.65111 1.57391 22889 ft 451 kts 10°
2026-05-05 21:37 41.68113 1.58497 22365 ft 445 kts 10°
2026-05-05 21:37 41.71050 1.59740 21831 ft 443 kts 19°
2026-05-05 21:37 41.73714 1.61786 21348 ft 443 kts 34°
2026-05-05 21:38 41.75950 1.64609 20852 ft 441 kts 49°
2026-05-05 21:38 41.77613 1.68027 20388 ft 435 kts 64°
2026-05-05 21:38 41.78623 1.71789 19902 ft 427 kts 78°
2026-05-05 21:38 41.79203 1.75622 19274 ft 411 kts 80°
2026-05-05 21:39 41.79728 1.79307 18799 ft 396 kts 80°
2026-05-05 21:39 41.80237 1.82920 18300 ft 394 kts 80°
2026-05-05 21:39 41.80750 1.86574 17755 ft 393 kts 80°
2026-05-05 21:39 41.81257 1.90142 17262 ft 384 kts 79°
2026-05-05 21:40 41.81745 1.93558 16797 ft 376 kts 80°
2026-05-05 21:40 41.82232 1.96989 16334 ft 374 kts 80°
2026-05-05 21:40 41.82722 2.00449 15865 ft 372 kts 80°
2026-05-05 21:40 41.83197 2.03814 15403 ft 371 kts 80°
2026-05-05 21:41 41.83676 2.07210 14936 ft 370 kts 80°
2026-05-05 21:41 41.84140 2.10594 14443 ft 369 kts 81°
2026-05-05 21:41 41.84584 2.14032 13933 ft 369 kts 81°
2026-05-05 21:41 41.85011 2.17426 13415 ft 369 kts 81°
2026-05-05 21:42 41.85291 2.19667 13062 ft 367 kts 81°
2026-05-05 21:42 41.85709 2.22989 12576 ft 357 kts 81°
2026-05-05 21:42 41.86122 2.26254 12095 ft 353 kts 81°
2026-05-05 21:42 41.86664 2.30524 11451 ft 348 kts 81°
2026-05-05 21:43 41.86937 2.32685 11156 ft 347 kts 81°
2026-05-05 21:43 41.87466 2.36880 10540 ft 342 kts 81°
2026-05-05 21:43 41.87734 2.38991 10230 ft 336 kts 81°
2026-05-05 21:43 41.88110 2.41985 10004 ft 315 kts 81°
2026-05-05 21:44 41.88465 2.44823 9780 ft 304 kts 81°
2026-05-05 21:44 41.88813 2.47618 9645 ft 303 kts 81°
2026-05-05 21:44 41.89171 2.50394 9516 ft 302 kts 80°
2026-05-05 21:44 41.89566 2.53162 9170 ft 301 kts 79°
2026-05-05 21:45 41.89975 2.55902 8757 ft 298 kts 79°
2026-05-05 21:45 41.90387 2.58620 8337 ft 296 kts 79°
2026-05-05 21:45 41.90795 2.61315 7918 ft 293 kts 79°
2026-05-05 21:45 41.91193 2.63990 7507 ft 292 kts 79°
2026-05-05 21:46 41.91587 2.66661 7084 ft 292 kts 79°
2026-05-05 21:46 41.91979 2.69333 6650 ft 292 kts 79°
2026-05-05 21:46 41.92368 2.72000 6220 ft 291 kts 79°
2026-05-05 21:46 41.92983 2.74561 5814 ft 288 kts 61°
2026-05-05 21:47 41.94179 2.76679 5409 ft 284 kts 40°
2026-05-05 21:47 41.95798 2.78120 5029 ft 278 kts 21°
2026-05-05 21:47 41.97610 2.78885 4717 ft 270 kts 14°
2026-05-05 21:47 41.99397 2.79559 4494 ft 261 kts 14°
2026-05-05 21:48 42.01103 2.80209 4368 ft 248 kts 14°
2026-05-05 21:48 42.02723 2.80829 4259 ft 236 kts 14°
2026-05-05 21:48 42.04261 2.81418 4143 ft 224 kts 14°
2026-05-05 21:48 42.05743 2.81985 4034 ft 220 kts 14°
2026-05-05 21:49 42.07210 2.82544 3944 ft 218 kts 14°
2026-05-05 21:49 42.08670 2.83101 3854 ft 217 kts 14°
2026-05-05 21:49 42.10146 2.83363 3756 ft 214 kts 349°
2026-05-05 21:49 42.11439 2.82475 3627 ft 213 kts 313°
2026-05-05 21:50 42.12078 2.80696 3515 ft 216 kts 277°
2026-05-05 21:50 42.11773 2.78719 3394 ft 222 kts 239°
2026-05-05 21:50 42.10597 2.77392 3265 ft 228 kts 199°
2026-05-05 21:50 42.09033 2.77347 3151 ft 229 kts 164°
2026-05-05 21:51 42.07502 2.77898 3016 ft 231 kts 165°
2026-05-05 21:51 42.05979 2.78420 2933 ft 219 kts 165°
2026-05-05 21:51 42.04552 2.78907 2800 ft 203 kts 165°
2026-05-05 21:51 42.03250 2.79351 2691 ft 188 kts 164°
2026-05-05 21:52 42.00635 2.79821 2382 ft 182 kts 187°
2026-05-05 21:52 41.99451 2.79527 2145 ft 166 kts 194°
2026-05-05 21:52 41.98360 2.79159 1923 ft 159 kts 195°
2026-05-05 21:53 41.97302 2.78774 1726 ft 156 kts 196°
2026-05-05 21:53 41.96263 2.78386 1508 ft 154 kts 197°
2026-05-05 21:53 41.95238 2.78001 1307 ft 152 kts 195°
2026-05-05 21:53 41.94230 2.77620 1097 ft 150 kts 195°
2026-05-05 21:54 41.93216 2.77236 897 ft 148 kts 195°
2026-05-05 21:54 41.92239 2.76866 689 ft 145 kts 194°
2026-05-05 21:54 41.91288 2.76504 516 ft 143 kts 195°
2026-05-05 21:54 41.90411 2.76174 453 ft 104 kts 194°
2026-05-05 21:55 41.90006 2.76026 432 ft 24 kts 195°
2026-05-05 21:55 41.89827 2.75956 424 ft 29 kts 196°
2026-05-05 21:55 41.89619 2.75878 415 ft 21 kts 195°
2026-05-05 21:55 41.89525 2.75924 411 ft 14 kts 94°
2026-05-05 21:56 41.89556 2.76018 411 ft 0 kts 62°
2026-05-05 21:57 41.89591 2.76084 412 ft 12 kts 41°
2026-05-05 21:57 41.89662 2.76121 409 ft 11 kts 15°
2026-05-05 21:57 41.89728 2.76147 415 ft 9 kts 16°
2026-05-05 21:58 41.89785 2.76169 417 ft 9 kts 16°
2026-05-05 21:58 41.89848 2.76193 421 ft 9 kts 15°
2026-05-05 21:58 41.89895 2.76219 424 ft 6 kts 41°
2026-05-05 21:58 41.89903 2.76276 426 ft 8 kts 97°
2026-05-05 21:59 41.89885 2.76353 421 ft 9 kts 115°
2026-05-05 21:59 41.89863 2.76433 420 ft 8 kts 107°
2026-05-05 21:59 41.89850 2.76485 418 ft 0 kts 108°